Location: Newark
(25.4297°S, 49.2719°W)
Time: 00:34:39
(UTC+00:00)

Vanguard 3 - Visible Passes

Search period start: 17 November 2019 00:00
Search period end: 27 November 2019 00:00
Orbit: 508 x 3263 km, 33.3° (Epoch: 14 November)

Date Brightness Start Highest point End Pass type
(mag) Time Alt. Az. Time Alt. Az. Time Alt. Az.
17 Nov 8.2 05:40:21 32° ESE 05:40:21 32° ESE 05:43:10 10° ESE visible
17 Nov 8.4 07:46:18 10° WSW 07:50:44 39° S 07:57:42 10° ESE visible
18 Nov 7.7 06:35:04 29° SW 06:36:33 39° S 06:41:46 10° ESE visible
19 Nov 8.8 05:25:13 22° SE 05:25:13 22° SE 05:27:01 10° ESE visible
19 Nov 8.4 07:30:53 10° WSW 07:34:59 35° S 07:41:11 10° ESE visible
20 Nov 7.7 06:19:56 29° SSW 06:20:53 33° S 06:25:28 10° ESE visible
21 Nov 9.3 05:10:06 15° SE 05:10:06 15° SE 05:10:57 10° ESE visible
21 Nov 8.4 07:15:26 10° WSW 07:19:16 33° S 07:24:47 10° ESE visible
22 Nov 7.9 06:04:49 28° SSW 06:05:14 29° S 06:09:17 10° ESE visible
23 Nov 8.3 06:59:55 10° SW 07:03:33 32° S 07:08:32 10° ESE visible
24 Nov 8.2 05:49:47 26° S 05:49:47 26° S 05:53:13 10° ESE visible
25 Nov 8.1 06:44:36 12° SW 06:47:50 32° SSE 06:52:23 10° ESE visible
26 Nov 8.5 05:34:52 23° SSE 05:34:52 23° SSE 05:37:19 10° ESE visible
26 Nov 7.5 07:41:49 10° WSW 07:45:52 58° SSE 07:51:58 10° E visible
